Wind_Speed
74 71 72 65 66 72 71 70 67 66 68 66 67 69 69 69 70 69 67 65 63 61 60 58 57 56 56 55 55 53 52 51 50 48 47 46 44 44 42 39 38 35 39 46 44 42 42 43 43 39 38 38 36 33 30 30 31 30 29 29 29 26 23 22 22 22 21 20 20 19 19 19 19 18 17 16 15 15 16 16 16 16 15 15 16 16 16 16
77 71 72 68 63 67 66 67 70 68 68 69 68 69 69 68 69 69 67 65 64 61 60 59 57 57 57 56 55 54 53 53 51 50 48 48 46 45 44 42 40 36 37 44 44 43 44 43 43 40 39 39 38 36 33 32 32 31 30 29 29 26 24 24 24 23 22 22 21 20 20 20 20 18 17 17 16 16 16 16 17 17 16 16 17 17 16 16
82 77 72 70 66 65 65 65 71 70 68 70 70 69 69 68 68 69 68 66 64 62 60 59 58 58 58 56 56 55 54 55 53 50 49 49 48 47 46 44 42 38 37 43 45 44 45 44 43 41 40 40 40 39 36 34 34 33 31 29 28 27 26 26 26 24 24 23 22 22 21 21 19 18 18 17 16 17 17 17 17 17 17 17 17 17 17 16
82 84 76 70 70 67 64 65 67 69 68 67 67 66 68 69 68 68 69 68 66 63 61 59 59 58 59 58 57 56 55 55 52 50 49 49 49 48 48 46 43 41 38 41 46 46 46 47 46 43 42 41 42 41 39 37 35 34 31 28 29 29 28 28 27 26 26 25 24 23 22 20 20 19 19 18 17 19 19 19 18 18 18 17 17 17 17 16
80 85 84 73 71 69 65 65 66 67 68 67 65 64 66 67 67 66 66 68 68 65 62 60 59 59 59 59 59 57 57 56 51 51 51 51 51 50 49 47 44 42 39 40 46 49 48 49 49 46 45 44 44 44 43 41 37 35 31 29 32 31 30 29 28 28 27 27 26 23 22 22 21 20 20 20 19 20 20 20 20 19 19 18 17 17 17 17
84 82 88 79 71 71 68 66 66 68 69 68 66 63 63 64 65 66 65 66 67 66 64 61 60 60 60 60 59 58 58 56 51 52 54 52 52 51 50 48 45 43 42 41 45 50 51 50 51 48 46 46 46 46 46 43 39 36 33 32 34 33 31 31 29 29 29 28 26 25 24 23 22 22 22 21 20 19 19 19 19 19 19 19 18 18 17 17
90 81 84 81 73 72 71 68 65 68 71 70 67 63 60 59 62 65 64 65 65 66 65 62 61 60 61 61 59 59 58 56 53 53 54 52 52 52 51 50 47 45 43 42 44 49 52 50 51 49 47 48 47 47 47 44 40 38 35 34 36 34 33 32 30 31 30 29 28 28 26 24 24 24 23 22 21 20 20 20 20 20 20 20 19 19 18 18
96 83 78 78 77 73 71 72 66 65 72 73 69 65 60 58 60 63 63 63 64 65 65 63 62 61 61 61 60 61 60 57 55 54 54 53 52 53 53 51 49 46 44 43 43 47 50 50 52 51 48 48 48 48 48 46 43 40 37 36 37 36 35 34 32 32 32 31 30 29 26 26 27 26 25 24 22 21 21 21 21 21 21 20 20 19 19 19
100 89 78 75 78 75 71 72 69 65 69 72 72 67 64 60 57 60 61 62 63 64 65 64 63 62 62 62 62 62 60 56 54 53 54 54 53 53 54 53 50 46 44 43 43 46 49 48 51 52 50 49 48 49 49 47 45 42 38 38 38 37 37 36 34 34 34 33 30 29 28 28 27 27 26 24 22 22 22 22 21 21 21 21 21 20 21 21
101 94 82 72 72 77 73 71 71 67 65 68 71 69 67 62 56 57 60 61 62 63 64 65 64 63 63 63 63 62 59 57 54 53 54 54 53 54 55 53 50 46 44 43 43 44 46 45 47 52 53 51 49 51 51 49 47 43 40 41 41 39 39 37 36 36 36 34 31 31 30 29 29 28 26 24 24 23 23 22 22 21 22 22 22 21 21 22
99 97 87 75 69 74 74 71 72 69 63 63 67 69 69 65 58 56 59 60 61 62 64 65 65 64 63 63 63 62 60 58 55 54 54 54 53 53 55 54 50 48 45 44 43 44 46 42 42 48 53 53 51 52 53 51 47 43 41 42 42 41 40 38 37 38 37 35 33 32 32 31 30 28 27 27 26 25 24 24 23 22 22 23 23 22 22 22
96 97 91 82 72 73 74 70 72 70 65 62 64 69 68 65 62 57 57 59 59 61 63 64 65 63 62 62 62 60 60 59 56 55 55 55 54 54 56 55 52 50 48 47 45 46 49 44 40 44 49 52 52 53 55 53 49 46 44 42 42 42 41 39 38 38 38 36 35 34 34 32 29 28 29 28 27 27 25 24 23 23 23 23 24 23 23 22
91 96 93 87 77 75 75 70 70 71 68 63 62 69 68 63 64 61 57 56 55 58 62 63 63 63 64 63 61 60 60 60 56 56 56 56 55 54 55 56 54 52 50 50 49 50 52 49 43 42 44 46 50 54 56 54 51 49 47 44 43 43 42 41 40 39 39 38 37 37 35 30 27 29 31 28 27 27 26 25 24 23 23 24 25 24 24 23
88 96 97 91 81 77 77 72 71 71 70 66 61 67 69 61 61 63 60 57 53 55 60 62 62 63 64 63 61 61 61 61 57 56 57 56 56 54 55 56 54 53 52 51 50 51 53 52 49 45 42 41 45 52 56 55 53 52 50 48 46 45 44 43 41 40 39 39 38 37 34 30 31 33 31 28 28 28 27 27 25 24 24 25 26 25 25 24
86 96 101 96 86 77 74 72 71 72 70 67 61 65 69 64 60 60 61 59 54 56 60 62 63 63 64 64 62 61 61 61 58 57 57 57 57 55 55 56 54 53 53 52 50 50 51 53 53 50 44 40 42 49 55 56 53 53 53 51 49 47 45 44 43 41 41 40 39 38 34 32 35 35 31 29 29 28 28 28 26 25 25 26 27 26 25 25
84 94 102 101 91 76 70 71 71 71 70 65 60 61 66 67 64 60 59 59 57 58 61 63 65 64 65 65 64 63 62 61 59 57 57 58 57 57 56 56 56 53 52 52 50 50 51 52 54 53 48 41 40 45 53 56 54 53 55 53 51 49 47 46 44 43 42 42 41 39 35 35 37 34 31 30 29 29 29 28 26 26 27 27 28 28 26 26
84 92 100 103 97 78 67 67 66 70 70 64 59 58 62 65 67 63 59 60 62 61 60 62 63 63 66 67 65 63 62 60 59 58 58 58 58 58 58 57 57 54 52 52 52 51 51 52 54 54 51 45 40 44 51 55 54 54 56 55 52 50 49 48 46 45 44 44 43 40 37 38 37 34 31 31 30 30 30 29 27 27 28 29 29 29 27 26
82 89 96 102 101 85 70 62 62 69 70 66 60 56 60 63 65 66 64 66 66 64 64 66 66 68 69 68 65 62 60 59 58 58 59 59 59 58 58 57 56 54 52 52 52 52 52 53 54 54 53 48 41 43 49 51 52 55 56 55 54 52 50 49 47 45 44 44 43 41 39 39 37 35 33 32 31 31 31 31 29 29 29 30 30 29 27 27
81 87 92 97 101 96 80 64 62 68 68 67 62 54 56 61 62 66 69 70 68 67 69 69 67 67 64 62 61 60 59 59 59 59 60 59 58 58 57 57 56 55 53 53 53 53 53 54 55 56 54 47 39 41 47 49 52 56 56 55 53 52 51 50 48 45 44 43 43 41 38 37 37 35 34 33 32 32 33 33 30 29 30 30 30 29 28 28
80 84 87 92 98 100 88 70 63 64 65 67 63 57 59 64 67 69 67 67 67 65 62 60 59 58 56 56 58 59 60 61 61 60 60 60 59 58 57 57 57 56 55 54 54 53 53 54 56 56 52 44 39 43 48 51 54 56 56 55 53 52 52 51 48 46 44 44 44 41 39 39 39 37 36 35 35 34 34 33 30 30 31 31 31 30 29 29
80 81 83 86 93 98 89 77 68 62 63 65 62 62 65 67 69 70 66 64 64 63 59 58 57 55 56 55 56 59 61 62 62 61 61 61 60 59 58 58 58 57 56 55 54 52 53 54 55 53 49 44 42 45 49 52 55 57 56 56 54 53 52 51 48 46 45 44 44 43 42 43 42 40 38 37 36 35 34 33 32 32 33 34 33 32 31 32
79 79 79 81 89 95 91 84 76 64 61 64 62 63 64 62 62 64 64 64 62 60 59 60 57 54 57 58 58 60 61 62 63 63 63 62 61 60 59 58 58 57 56 55 54 54 54 53 51 49 48 46 43 46 51 53 56 58 57 57 56 54 53 52 49 46 46 45 44 45 45 44 43 42 41 39 37 36 35 35 35 35 35 35 35 33 33 33
77 76 76 78 86 95 94 89 83 73 63 63 63 63 62 60 60 62 64 64 64 62 58 59 58 55 56 60 62 62 60 62 63 62 62 61 60 61 59 58 58 57 56 55 53 52 52 50 49 49 49 48 43 46 53 54 56 59 58 57 56 55 55 53 49 47 47 47 46 46 46 45 45 45 43 41 38 38 38 37 37 37 36 35 36 35 35 34
75 74 74 77 83 94 96 90 89 83 67 58 60 62 63 59 56 60 63 63 66 64 60 60 60 58 58 61 63 62 59 60 62 62 61 60 59 59 59 57 57 56 55 52 49 48 48 47 48 49 50 50 45 46 54 55 56 59 58 57 56 55 55 53 51 49 48 48 47 47 48 48 48 47 45 41 40 40 40 39 38 37 36 36 37 36 34 33
74 73 72 74 80 90 95 92 90 85 68 55 57 62 63 58 54 58 62 64 66 64 61 61 63 63 63 64 67 66 62 60 63 63 61 59 58 58 58 57 56 55 52 48 45 46 49 48 49 50 50 50 47 47 53 55 56 58 58 56 56 56 56 54 52 50 49 50 49 49 51 50 49 48 45 42 41 41 41 40 39 38 38 39 38 36 35 34
75 73 72 72 78 86 90 91 88 85 73 58 57 63 62 59 62 62 60 62 66 66 63 61 62 64 64 68 71 68 64 63 64 64 62 60 58 57 55 53 53 53 50 47 45 47 49 48 49 51 50 50 48 47 52 56 56 57 56 55 56 57 57 56 53 52 52 52 50 51 53 51 49 49 46 44 43 42 42 42 41 40 40 40 38 36 36 35
76 74 72 71 76 82 85 90 89 86 76 59 57 66 66 64 70 67 60 61 66 68 66 64 63 62 64 69 71 68 66 65 64 64 63 61 60 58 54 48 47 50 48 47 49 49 48 48 50 52 51 50 48 46 50 56 55 55 55 55 57 56 57 56 54 54 53 52 51 52 54 53 51 50 48 47 46 44 44 44 41 41 41 39 37 37 36 35
77 75 72 71 75 77 79 84 81 78 73 59 56 67 70 68 70 67 64 65 67 67 67 65 63 62 66 69 70 68 66 64 63 64 64 63 61 59 56 50 47 49 48 46 49 48 47 48 50 51 52 51 49 46 50 58 55 53 56 57 57 56 57 56 54 54 54 54 54 54 55 56 54 51 50 49 48 46 45 44 42 40 40 38 38 38 37 36
78 76 72 71 72 70 70 70 63 66 73 64 57 62 66 68 68 67 67 67 67 68 67 66 64 65 68 70 71 70 67 65 63 62 62 63 62 59 58 56 52 50 50 49 49 48 48 49 50 52 50 48 48 48 54 60 56 55 57 57 57 57 57 56 55 54 54 56 56 54 55 58 55 51 51 51 49 46 45 43 41 40 40 40 39 39 38 38
79 76 72 71 70 69 72 69 59 63 74 70 62 59 60 64 67 68 70 68 67 69 69 68 66 67 69 69 70 70 68 67 64 61 60 61 61 59 59 58 56 53 51 50 52 50 49 50 51 53 50 47 46 46 53 60 57 57 60 57 57 57 56 56 56 55 56 59 57 55 56 59 58 53 52 52 49 46 45 43 42 42 42 42 40 40 39 38
79 75 72 72 70 70 76 77 71 72 75 71 66 62 60 65 68 69 71 68 67 69 70 69 68 68 69 69 69 69 67 67 66 64 63 60 60 61 60 59 59 57 55 53 52 49 49 50 52 53 53 50 44 39 48 58 57 59 62 58 56 57 56 57 57 57 59 62 59 56 57 60 61 56 52 52 50 47 47 45 44 43 44 43 42 41 40 40
78 74 73 71 68 69 74 78 76 75 75 71 67 65 65 69 72 70 70 68 67 69 68 67 68 67 68 68 66 66 66 67 67 65 63 61 61 60 59 58 57 57 57 55 52 49 48 48 50 54 57 56 50 43 44 51 56 61 64 61 58 58 58 59 60 61 63 63 60 59 59 62 64 58 53 52 50 48 48 46 45 45 45 44 43 42 42 42
76 74 72 69 68 68 69 72 71 70 71 69 68 68 69 73 75 72 69 65 65 67 63 62 64 64 68 70 68 66 64 64 66 65 62 60 60 59 57 55 54 53 52 50 49 49 48 48 50 54 58 60 59 53 46 45 51 58 63 64 63 62 63 63 64 64 64 64 63 61 61 64 65 59 54 52 49 49 49 47 46 46 45 44 44 43 43 42
75 74 72 69 68 67 67 71 70 68 70 69 68 69 72 75 75 70 67 63 60 63 63 61 63 64 67 70 69 67 65 64 64 63 63 61 60 59 56 52 51 51 49 46 47 47 46 47 47 51 56 58 59 58 51 45 45 52 62 65 65 65 65 64 64 64 65 66 66 64 63 65 66 61 56 52 50 49 49 48 47 46 45 44 44 43 42 41
75 73 72 71 70 71 72 73 71 70 73 73 70 70 72 74 71 63 61 58 55 60 64 62 63 65 66 67 67 66 67 66 63 62 62 61 58 56 54 50 49 49 48 47 47 47 46 45 45 46 50 51 53 55 54 49 45 50 62 66 65 65 64 62 62 62 63 65 66 65 64 64 65 62 56 52 51 49 48 47 47 46 45 44 44 44 43 42
76 75 75 75 74 75 76 74 73 75 76 75 74 72 70 69 65 57 54 53 51 55 61 64 65 66 66 67 67 65 64 62 62 62 60 59 58 54 49 48 50 51 48 46 46 46 45 45 45 46 46 46 48 49 52 53 48 49 60 65 64 64 63 61 61 60 61 63 65 65 64 63 64 62 56 52 51 50 47 47 46 46 46 45 44 43 43 43
79 78 79 79 77 77 77 74 73 76 75 73 73 72 69 66 62 58 55 53 51 50 55 63 67 67 65 66 67 67 65 62 60 61 58 58 59 57 49 44 46 49 48 47 48 47 45 45 44 45 44 44 46 46 49 52 50 49 55 61 63 64 63 62 62 61 62 64 66 66 65 64 65 64 59 54 53 52 49 47 45 45 46 45 44 43 43 43
79 79 78 78 78 77 77 74 72 73 73 74 74 72 70 68 65 61 58 56 53 51 52 56 62 66 66 64 64 66 67 66 64 61 59 58 58 58 54 48 46 47 47 47 49 48 45 44 44 42 41 42 44 45 48 51 51 49 51 56 63 65 64 64 65 66 66 67 68 68 67 66 66 66 62 56 54 53 50 47 46 45 45 45 45 45 45 45
78 79 78 77 77 76 76 75 72 71 73 76 78 77 73 68 64 61 59 57 55 53 51 50 54 62 66 64 63 65 68 69 66 64 61 57 55 54 54 52 50 50 48 47 49 48 45 44 44 43 40 40 42 45 47 50 51 48 49 57 64 66 66 67 67 68 68 67 68 68 68 67 66 65 62 58 54 52 50 47 46 45 45 46 46 47 47 47
78 79 78 78 78 77 75 75 74 74 75 75 75 76 72 66 63 61 59 57 55 54 51 47 48 56 63 65 65 64 66 67 66 63 60 55 52 52 54 55 54 51 47 46 46 45 43 43 43 42 41 41 43 44 45 47 49 48 48 54 61 65 68 68 68 69 69 67 67 68 68 67 65 64 61 57 53 51 51 49 47 46 46 47 48 48 47 47
77 78 78 79 80 78 76 76 76 76 75 72 71 71 69 66 65 63 61 58 57 55 52 47 46 50 58 63 65 63 62 64 64 61 58 54 50 49 51 52 52 50 47 45 43 42 42 41 42 41 41 41 42 43 44 45 47 47 47 51 58 64 68 69 70 70 69 68 68 67 68 67 65 62 60 56 52 51 51 51 49 47 47 47 47 48 48 47
77 79 79 81 81 79 77 77 78 76 74 73 72 70 69 68 66 63 62 60 59 57 55 51 48 51 56 59 61 62 61 62 63 61 60 57 51 47 46 46 46 45 44 42 41 41 42 41 41 41 40 40 42 43 43 43 45 47 48 49 56 64 68 69 71 71 70 70 69 68 68 67 64 62 59 54 51 50 50 50 49 48 48 48 47 47 47 48
78 79 78 79 80 78 77 77 77 77 74 72 71 70 70 70 67 64 62 61 59 58 57 54 52 54 56 55 56 60 61 61 62 62 62 60 55 50 48 46 45 43 43 43 42 41 42 42 42 41 41 41 41 41 41 42 44 46 46 47 53 60 65 69 70 70 69 70 68 68 69 67 64 61 58 53 49 47 47 48 48 49 50 49 49 48 48 47
77 79 80 80 79 78 78 79 79 78 74 71 71 71 70 69 67 65 61 59 58 57 56 54 53 54 55 54 53 57 59 60 61 62 62 60 54 49 47 47 47 46 44 42 41 40 41 42 42 41 41 43 43 43 42 42 44 44 45 46 50 55 62 68 70 70 69 69 69 69 70 68 64 61 58 54 49 46 45 45 46 47 48 49 49 49 49 48
76 77 78 79 78 78 79 78 77 75 72 71 71 70 68 66 65 62 60 58 57 56 55 54 53 54 55 54 53 54 56 58 60 63 65 63 56 49 44 43 45 46 44 41 40 39 39 40 40 40 41 43 42 41 41 43 46 47 47 47 48 52 59 65 68 70 71 70 70 70 70 68 65 62 59 55 51 47 46 44 43 43 44 46 47 48 49 49
80 79 78 78 77 76 77 76 73 71 70 70 71 70 68 65 64 63 62 61 59 57 56 56 56 56 55 54 55 55 55 57 59 60 62 64 60 52 46 44 43 42 42 41 39 39 39 40 40 39 39 39 38 38 39 41 44 45 46 47 49 52 57 64 69 71 70 70 71 71 69 68 66 63 59 54 50 47 46 43 41 41 42 44 46 48 49 49
82 83 81 82 79 76 75 75 73 70 69 69 69 68 67 64 62 62 62 62 59 56 57 58 58 58 57 56 56 57 57 57 58 58 58 59 59 55 50 48 46 45 44 42 40 39 40 41 40 38 38 38 38 38 38 39 39 40 42 44 47 50 56 63 67 66 67 71 72 70 69 68 67 63 57 52 46 42 41 40 40 41 43 45 47 48 49 49
80 82 80 81 82 80 77 75 72 70 70 69 67 65 64 62 60 58 56 56 55 54 56 59 59 58 57 56 56 58 59 59 59 60 59 58 59 58 55 52 48 45 44 44 42 41 40 40 38 37 38 38 38 38 39 39 39 39 39 40 41 46 53 59 60 60 64 68 67 65 67 69 68 61 53 47 43 39 40 42 42 44 45 46 47 46 47 47
77 80 79 78 78 77 74 72 70 69 69 68 66 63 60 59 58 55 52 52 52 52 54 56 57 57 56 55 56 58 61 61 61 61 61 60 60 60 59 57 52 47 44 44 43 42 41 40 38 38 38 38 38 38 39 40 40 40 41 40 40 43 48 51 51 52 58 62 60 63 67 68 67 61 52 49 47 46 47 48 47 45 45 45 44 43 43 44
76 78 78 76 74 73 72 72 70 68 68 66 63 61 58 57 57 56 54 53 52 50 50 51 55 57 57 56 57 57 56 57 58 59 60 61 60 59 59 59 56 53 49 46 47 46 44 43 41 39 38 39 39 38 39 40 40 40 41 41 40 41 43 44 44 47 55 57 57 64 68 68 67 61 55 52 51 51 51 48 46 45 44 43 42 41 41 41
76 77 75 73 73 73 73 73 70 67 67 65 62 61 59 57 56 56 55 54 53 51 50 51 55 57 58 57 56 53 53 55 56 56 55 54 54 55 55 56 56 54 51 49 49 49 48 47 45 42 40 41 40 40 40 39 39 41 43 42 42 42 42 42 42 46 51 50 53 60 61 59 62 60 55 53 52 50 48 44 43 44 43 43 43 43 44 44
75 77 74 71 72 72 70 70 70 68 65 63 61 60 59 58 56 56 55 55 54 53 53 54 57 59 59 57 54 52 54 57 56 54 51 48 47 47 48 48 47 47 47 47 47 48 48 47 47 44 42 41 40 40 38 37 39 43 43 42 42 42 42 42 43 44 45 46 51 53 49 50 58 58 55 55 53 50 47 44 44 45 46 46 46 46 46 45
Wind_Direction
202 205 206 206 208 209 208 209 210 213 215 215 216 218 220 221 221 220 219 219 217 215 215 214 212 209 209 208 209 210 210 211 210 208 207 207 211 215 216 215 214 214 213 210 208 207 207 209 211 214 216 218 220 217 219 224 227 228 229 228 225 221 212 207 209 207 206 207 210 211 210 212 209 198 195 192 177 164 161 161 158 158 160 157 152 152 153 151
199 201 204 206 206 206 206 207 207 209 213 214 213 215 219 220 220 220 219 218 217 215 215 215 213 210 209 209 209 210 211 211 210 208 207 206 210 214 216 216 215 214 213 210 211 210 207 207 209 213 217 219 222 222 221 224 228 229 230 229 225 221 214 210 210 208 206 208 211 211 211 213 210 200 196 193 180 168 167 165 162 162 163 162 158 156 157 158
198 199 201 203 204 204 205 207 206 207 211 214 215 214 218 221 220 221 220 219 218 216 215 215 213 210 209 209 209 210 211 211 209 208 208 206 209 213 215 216 215 215 214 211 212 212 208 207 208 211 217 220 222 224 223 224 228 229 230 230 225 221 216 212 211 208 207 209 210 211 211 212 209 202 198 194 183 174 171 168 167 167 166 167 164 161 160 163
198 201 201 201 202 202 204 206 204 204 209 214 214 214 216 220 221 221 220 219 218 217 215 215 213 210 210 209 209 209 211 212 209 208 209 208 209 213 215 216 215 215 215 212 213 214 211 209 208 209 213 219 222 225 225 224 228 229 229 229 225 222 219 215 212 209 209 209 210 211 211 211 207 202 199 195 186 179 176 172 171 171 171 172 169 166 165 165
198 198 202 202 200 200 202 203 202 201 205 211 211 211 214 217 219 220 221 220 219 217 216 214 212 210 209 209 209 209 211 212 208 208 211 209 208 213 216 216 216 215 215 214 213 215 215 213 211 210 211 216 221 224 224 225 228 229 227 225 224 222 220 218 214 211 210 211 211 210 212 211 205 201 199 197 191 184 181 176 175 175 175 176 172 170 169 168
200 194 199 203 199 198 200 200 202 201 202 208 210 210 212 215 218 219 220 220 219 218 216 214 212 210 209 209 210 211 213 212 209 209 211 210 208 212 216 217 217 216 215 215 215 215 216 217 214 211 210 213 220 222 223 225 227 228 224 222 222 221 221 219 215 214 213 212 210 208 210 211 206 201 200 199 194 187 185 182 179 178 178 178 176 174 173 172
204 193 194 200 198 198 200 198 201 201 200 205 208 209 210 212 215 217 219 219 218 217 216 214 212 210 209 209 209 211 213 211 209 210 211 211 208 211 216 218 218 217 216 216 216 215 217 219 217 214 211 212 219 221 221 225 227 227 223 221 222 219 220 219 215 216 216 213 211 210 207 208 207 202 200 199 195 191 188 186 184 182 182 181 179 177 176 177
205 196 191 195 196 199 201 199 199 201 201 202 205 207 207 208 213 216 217 218 217 216 215 214 212 211 209 209 210 212 214 212 209 209 211 211 209 210 215 218 219 218 216 216 216 215 217 220 219 216 212 212 218 220 220 223 227 226 221 220 221 219 219 217 214 216 218 216 214 212 207 207 209 204 201 199 196 194 191 190 189 185 185 185 183 181 179 181
207 201 193 191 192 198 200 199 199 199 200 202 203 204 205 206 210 215 217 218 217 215 214 213 212 211 210 209 211 213 215 214 210 209 211 212 210 209 214 219 219 219 217 217 216 215 218 221 221 218 213 213 218 220 220 222 226 224 218 218 219 218 219 217 214 215 218 217 215 213 209 208 210 207 203 200 197 198 195 193 193 188 188 189 187 186 184 183
209 204 197 192 189 194 198 199 198 196 196 201 202 204 205 205 207 213 216 217 216 214 213 213 212 212 210 210 212 214 215 215 212 210 211 213 212 210 215 219 219 219 218 218 218 217 219 222 223 220 215 215 216 218 221 221 224 223 217 218 218 217 219 218 214 214 217 217 215 214 211 209 210 208 204 200 199 202 199 196 195 193 190 190 191 190 188 186
210 206 202 198 190 191 196 197 198 195 194 198 201 203 205 205 205 210 215 216 215 213 212 212 212 212 212 212 214 214 214 215 212 211 212 213 214 212 215 219 219 218 217 218 219 219 221 224 225 221 217 217 215 217 221 222 224 223 218 219 218 217 218 218 216 215 216 216 215 214 212 210 210 209 205 201 200 202 203 199 197 197 193 192 194 192 192 189
210 208 205 202 195 193 195 195 197 196 194 196 200 204 205 205 205 206 211 214 214 213 211 212 212 212 212 212 213 213 214 216 213 211 213 213 214 214 215 219 218 217 216 216 219 220 221 224 227 225 220 219 217 217 220 221 222 222 220 220 219 219 218 217 217 216 216 215 216 215 213 211 209 210 209 205 203 203 204 202 200 200 197 196 196 194 193 191
209 208 205 202 199 197 196 195 196 194 192 191 197 205 204 204 206 207 210 212 212 211 210 211 211 211 211 212 212 211 212 215 213 212 213 213 214 215 216 220 220 218 216 215 218 220 222 224 228 229 225 221 220 220 221 221 220 221 222 221 220 220 219 218 217 217 216 215 216 216 213 209 209 214 213 208 206 207 206 205 204 203 201 199 199 198 194 191
208 207 205 202 199 197 195 195 195 193 192 190 194 204 204 202 205 209 212 214 213 209 208 209 209 210 211 211 211 211 212 213 212 211 213 213 214 215 216 220 221 220 219 217 218 221 222 224 227 231 228 223 221 221 222 221 220 221 222 222 222 221 219 218 218 217 217 216 217 218 212 206 209 215 214 210 208 209 210 208 206 205 204 203 202 201 197 195
207 206 206 205 199 193 191 193 194 193 193 192 193 200 203 202 202 206 209 212 213 208 206 207 208 209 211 211 210 210 212 213 212 211 213 213 214 216 217 220 222 222 221 220 220 223 224 225 228 233 233 228 223 221 222 222 220 220 223 223 223 221 218 218 218 217 217 216 218 218 212 208 212 215 213 212 211 211 214 212 208 206 206 206 205 203 201 199
207 205 207 206 199 189 187 189 192 193 193 192 193 196 201 203 202 204 206 208 209 207 206 206 207 208 210 211 210 210 211 211 211 211 212 214 214 216 217 219 222 222 222 222 222 223 225 226 229 233 236 235 228 222 222 222 221 221 224 224 223 221 218 218 218 217 216 216 218 217 211 211 215 215 213 213 213 214 217 217 212 208 208 208 207 206 203 201
206 206 207 206 200 189 183 185 188 192 193 192 192 193 197 202 204 205 205 206 206 204 206 207 207 207 210 211 210 210 210 210 211 211 212 213 215 217 217 219 222 223 222 222 223 224 225 227 229 233 237 239 233 225 223 222 221 222 224 225 222 219 217 217 218 217 217 217 218 216 211 212 216 214 213 213 214 215 217 219 216 212 209 209 210 208 205 203
206 206 207 207 202 193 185 183 184 189 191 192 194 193 193 197 203 204 203 204 204 202 204 206 205 206 209 211 210 210 210 210 212 212 213 214 215 217 218 220 223 224 222 222 223 224 225 226 229 233 235 239 237 229 225 223 222 223 225 225 222 219 217 217 217 217 217 218 219 217 212 214 216 214 213 214 215 216 217 220 218 215 211 209 211 209 206 204
205 207 207 207 205 200 194 187 183 185 187 191 194 193 190 191 198 203 204 204 202 201 203 205 204 207 211 212 211 209 209 210 212 213 213 215 216 217 218 220 222 224 224 223 223 224 225 226 228 232 234 238 240 236 229 224 222 223 224 224 221 219 219 218 216 216 217 218 220 219 215 216 218 216 215 214 215 217 218 219 219 217 213 210 211 211 208 205
204 207 208 208 207 206 200 188 183 184 184 188 192 192 189 187 191 197 201 205 205 204 206 208 208 209 213 215 212 210 209 210 212 213 214 215 216 217 218 220 223 225 224 224 224 224 226 226 228 232 235 240 245 242 232 223 222 223 223 223 220 218 220 219 217 215 215 217 219 219 216 217 219 218 216 215 215 216 218 219 218 217 215 211 210 211 209 207
203 206 207 207 207 207 200 189 187 188 186 188 191 192 190 188 190 195 197 202 206 206 206 207 208 209 211 213 212 211 212 212 212 212 213 215 216 217 218 220 224 227 227 226 225 224 226 228 228 231 235 240 246 241 231 224 223 223 223 223 220 218 220 220 218 216 217 217 218 218 216 217 218 218 217 216 215 216 218 218 217 217 215 212 210 209 209 210
203 204 205 206 207 206 199 192 193 194 190 190 192 193 193 191 194 199 203 206 207 206 206 206 206 208 208 209 209 209 211 212 213 213 213 214 215 216 218 220 223 227 229 229 227 225 226 228 228 229 231 237 243 237 229 224 222 223 222 222 221 218 218 219 218 217 218 218 217 218 218 218 219 219 218 217 215 216 218 217 216 216 215 213 210 209 210 211
202 202 203 205 205 205 201 197 198 198 192 189 192 194 194 194 193 196 205 210 209 204 204 206 207 207 207 208 209 209 210 211 213 214 215 215 216 217 218 220 223 227 229 230 230 229 229 229 227 227 228 233 241 235 227 225 222 222 222 221 221 219 218 219 217 217 219 218 217 218 219 219 221 221 219 217 215 216 219 218 217 217 216 215 213 212 212 212
200 199 201 202 203 205 204 203 204 202 194 188 190 192 195 197 196 196 200 206 208 205 202 203 204 205 205 208 210 210 210 211 213 215 215 216 218 219 220 221 223 226 230 230 230 230 230 228 226 227 228 231 238 235 227 225 223 222 223 222 220 219 219 218 216 217 219 219 218 219 220 220 222 224 221 217 215 216 219 219 218 217 216 216 215 214 214 215
199 197 199 200 202 204 205 207 206 202 196 189 190 190 191 195 198 200 200 201 206 206 205 203 201 203 203 205 209 209 210 211 212 214 215 215 218 220 221 223 224 227 229 229 227 227 227 225 223 226 229 231 238 236 227 225 224 223 224 222 220 219 218 218 216 216 218 219 219 219 222 221 221 225 223 219 217 216 219 220 218 216 215 216 216 215 216 217
197 195 196 198 200 203 205 207 205 203 200 194 191 186 182 189 195 196 199 202 205 206 207 205 201 201 203 204 207 208 209 211 210 212 214 215 217 219 221 224 227 228 229 227 225 224 224 224 221 224 228 230 237 237 228 226 226 224 224 222 219 219 219 218 217 217 218 220 219 220 224 223 221 224 224 221 218 216 219 221 218 217 217 216 216 216 218 219
196 194 195 196 199 203 205 205 205 206 202 192 190 185 179 186 194 195 198 202 206 207 207 207 204 202 203 206 207 208 208 210 210 210 212 214 215 217 218 222 226 227 227 227 227 226 225 224 223 224 228 229 235 237 229 226 228 227 225 221 219 219 220 219 218 217 219 220 220 221 225 225 222 223 224 222 220 217 219 221 219 219 219 217 217 219 220 222
194 192 193 195 199 203 204 204 205 207 201 189 188 189 183 187 196 201 203 203 205 206 206 207 205 204 205 206 208 209 209 209 211 211 211 212 214 216 215 215 220 223 222 223 227 228 226 226 224 224 227 230 235 238 230 226 228 227 223 220 218 219 220 220 219 219 220 221 221 220 224 227 223 220 223 223 221 218 218 220 220 220 221 220 220 221 222 224
191 191 192 194 198 199 197 195 197 203 202 193 189 189 186 189 197 202 204 205 206 206 206 205 204 205 206 207 207 208 208 209 212 213 213 213 213 214 215 214 216 219 218 219 222 222 222 224 223 222 225 229 233 236 230 226 228 226 222 218 218 219 220 219 219 219 221 223 222 222 224 228 226 220 222 225 222 220 220 221 222 222 222 221 221 223 224 225
190 189 190 193 194 193 190 186 187 200 203 197 191 190 189 192 195 197 199 201 203 205 206 204 203 204 207 208 208 208 207 208 210 212 213 215 214 213 214 214 216 218 218 219 221 220 219 221 222 221 223 226 230 233 228 225 227 225 219 216 216 218 219 219 219 219 221 223 223 223 225 230 229 221 221 226 224 221 222 222 223 224 223 222 222 224 226 228
188 187 189 192 192 192 192 188 187 197 202 199 196 193 192 194 194 196 199 199 201 204 205 203 202 204 206 209 210 210 209 208 210 211 212 214 216 216 216 215 216 218 218 220 223 223 222 222 222 221 221 224 226 230 226 225 229 226 217 214 215 217 218 218 219 218 221 223 222 222 225 229 231 224 219 225 226 224 223 222 223 224 225 225 223 224 226 228
185 185 189 190 190 192 196 194 191 195 199 199 196 194 195 196 194 197 201 201 203 205 205 204 203 203 205 208 211 212 211 211 211 212 213 214 216 218 219 219 221 222 224 225 225 225 225 225 225 222 222 223 225 229 230 230 233 228 219 214 213 216 217 217 218 219 222 225 223 222 224 228 231 226 219 222 226 227 226 224 224 225 226 228 226 225 227 229
183 184 188 187 187 191 194 193 192 195 198 197 195 194 198 199 197 199 201 201 205 206 206 206 204 204 205 207 210 212 213 214 215 213 213 214 215 217 219 221 223 225 228 229 229 227 226 227 226 224 224 225 227 232 237 238 237 233 227 220 216 216 218 218 219 220 222 225 225 224 225 228 232 229 222 221 225 228 229 227 226 226 227 230 230 230 230 232
181 184 186 184 186 188 187 186 188 192 196 196 194 195 200 201 200 201 201 200 203 205 205 205 205 205 207 207 208 209 211 215 216 216 215 214 214 215 217 219 222 226 227 227 228 229 230 230 231 230 229 230 232 234 239 243 242 238 232 225 220 219 220 221 221 222 224 225 226 225 225 228 232 230 225 222 223 227 230 230 229 229 229 231 233 234 234 235
181 183 184 182 183 183 181 183 186 190 194 195 195 197 201 201 200 201 202 200 201 203 203 204 206 207 208 209 208 209 210 213 214 215 217 217 216 216 217 219 222 226 227 225 225 227 230 231 233 235 235 236 237 236 237 240 242 238 229 222 221 222 221 222 223 224 225 227 228 228 228 230 233 232 228 225 226 227 230 233 233 232 232 232 234 236 237 238
182 183 183 182 182 180 180 184 188 190 194 197 198 200 202 202 203 205 206 205 205 206 204 204 206 208 209 209 209 209 211 212 213 214 215 217 217 217 219 222 224 226 226 226 226 228 231 232 233 235 236 237 238 238 238 238 240 238 229 224 225 224 221 222 224 225 226 229 230 230 230 231 234 236 231 228 230 230 231 234 236 236 236 235 235 236 238 239
184 183 182 182 181 179 181 185 189 192 195 198 200 203 204 205 207 208 207 208 209 211 210 208 208 209 210 210 210 210 210 210 212 214 214 215 216 216 217 221 225 226 226 226 229 232 235 236 237 237 236 235 234 235 237 237 238 237 233 230 227 221 219 221 223 224 225 227 229 230 231 231 233 236 233 228 230 232 232 234 236 238 238 238 239 239 239 239
184 182 182 181 179 179 181 185 189 191 193 197 200 202 204 205 206 207 206 208 210 212 215 215 213 212 212 212 213 213 212 211 211 212 214 216 217 217 219 223 226 228 227 226 229 233 234 235 236 236 234 234 233 232 233 234 236 237 235 231 224 219 219 221 222 223 224 226 228 229 230 231 232 235 234 230 229 232 234 235 236 238 239 240 241 241 241 241
182 182 182 181 179 179 182 185 188 191 195 199 200 199 201 203 204 206 208 211 214 216 218 219 219 217 215 214 215 216 215 214 214 212 213 216 218 219 222 226 231 231 229 226 227 230 231 232 233 233 231 231 231 232 233 234 236 237 235 230 224 222 222 223 223 225 225 226 228 229 230 231 231 234 236 233 232 234 236 237 237 238 239 240 241 242 243 243
183 182 182 181 179 179 182 185 188 193 197 201 201 198 199 202 204 208 211 214 217 220 221 221 222 221 219 216 215 216 216 216 215 214 213 214 217 220 223 226 230 231 226 223 224 225 227 228 229 230 229 228 230 232 234 235 235 237 237 233 228 226 226 225 225 226 226 227 229 230 232 232 232 234 237 237 235 236 238 239 239 239 240 241 242 244 246 247
185 183 182 182 180 180 182 186 191 195 197 198 199 200 201 203 206 209 212 213 216 218 221 224 224 222 221 219 216 215 216 215 213 212 212 212 213 216 219 221 224 224 220 219 222 225 225 226 227 227 227 229 230 230 231 232 234 237 240 237 232 229 227 225 225 226 227 227 229 230 232 232 233 234 237 239 238 238 239 240 241 242 243 243 243 244 246 248
187 185 183 182 181 182 185 189 193 195 196 197 198 201 204 206 207 209 211 212 213 215 218 222 223 220 219 220 221 218 216 215 214 211 209 211 212 213 215 218 220 222 222 223 226 227 227 226 227 226 227 228 230 230 230 231 233 235 237 238 234 230 227 226 228 229 228 228 229 231 232 232 233 234 235 238 240 239 240 241 242 243 244 245 245 245 245 246
187 184 182 182 183 184 186 191 194 195 196 196 197 201 206 207 207 208 212 214 214 216 217 219 221 220 216 218 223 221 216 214 214 213 210 209 211 213 218 222 223 224 226 227 228 230 229 228 227 227 226 227 229 230 231 233 234 235 237 238 237 233 230 229 229 229 228 228 229 231 233 233 233 235 236 237 239 241 241 241 242 244 245 246 247 247 247 247
186 184 184 184 185 186 189 192 194 194 195 196 198 202 206 207 207 209 212 215 217 219 220 220 220 219 216 216 220 222 219 215 213 213 212 210 213 218 222 224 224 225 228 231 233 234 234 232 230 229 228 226 225 227 229 232 234 236 237 239 240 237 232 229 229 228 228 228 229 230 233 234 234 236 237 237 237 239 241 242 241 243 244 246 247 248 249 249
184 183 185 187 188 188 191 193 193 193 194 196 200 204 205 205 207 209 212 215 217 219 221 220 218 215 214 214 215 218 220 219 216 215 214 214 218 223 226 227 227 226 228 231 234 235 238 237 234 234 233 230 230 234 238 238 235 233 233 235 238 238 235 232 230 229 229 230 230 230 232 234 234 235 238 239 238 237 239 241 241 241 242 244 246 247 248 250
184 183 185 187 188 189 191 192 193 192 192 195 200 205 206 206 206 209 213 215 215 216 218 216 212 209 209 211 211 212 215 217 218 220 221 221 222 226 230 230 228 226 227 232 235 235 238 238 236 236 237 235 237 243 246 245 242 239 237 235 235 236 235 232 230 229 231 232 231 231 232 233 234 236 239 241 241 240 241 242 243 243 243 244 246 247 249 250
186 185 186 187 189 191 192 192 194 194 195 198 203 206 207 207 209 211 212 213 213 214 215 213 209 206 207 208 209 210 212 214 216 219 222 224 225 228 232 233 231 229 230 234 236 237 240 239 236 237 238 237 237 237 239 241 243 245 245 243 241 239 236 233 232 233 234 234 233 233 233 233 234 236 239 242 244 244 244 243 244 244 244 245 246 247 249 250
189 187 186 188 191 193 193 193 194 196 198 201 205 207 208 208 210 212 211 210 211 213 214 212 209 207 208 209 211 211 211 212 214 216 219 222 224 226 230 233 235 234 234 235 236 238 241 240 238 238 239 239 237 234 232 234 235 237 239 241 243 243 241 238 238 239 238 237 238 237 235 235 236 237 240 243 244 245 245 245 245 245 246 247 247 248 249 250
191 189 187 189 191 191 192 193 195 197 199 203 206 208 209 210 211 213 213 212 212 211 212 213 212 211 210 210 212 213 213 213 214 216 218 221 224 227 230 233 236 236 237 238 239 240 241 240 238 239 241 240 238 236 233 232 232 232 233 234 234 237 239 240 242 243 241 242 242 239 236 236 237 237 239 241 242 243 244 245 245 245 246 248 248 248 248 249
191 191 189 189 189 189 191 193 195 197 199 203 206 208 210 211 213 214 214 216 217 216 214 214 214 215 214 211 212 215 217 218 219 219 220 221 223 227 231 235 238 239 239 239 240 241 240 240 239 239 240 239 236 235 233 231 231 231 231 231 231 232 235 238 239 239 240 241 241 239 238 237 236 236 237 238 240 242 243 243 245 246 248 249 249 248 249 251
192 192 190 189 188 189 191 192 193 196 200 202 205 207 209 212 215 216 217 218 219 220 221 217 212 212 214 213 214 216 218 219 220 222 225 226 228 230 233 234 236 239 239 238 239 239 237 237 237 237 239 238 236 234 232 231 232 231 229 230 233 234 236 238 238 237 238 240 241 240 240 239 236 236 236 238 240 242 244 245 247 248 248 248 248 249 251 254
192 193 192 191 191 191 191 192 194 198 200 202 204 206 209 212 215 218 220 220 217 217 219 215 209 208 210 212 214 215 216 217 220 223 226 228 230 232 234 234 235 237 236 234 235 237 236 236 237 237 238 238 236 234 232 232 233 232 230 232 235 236 235 236 236 237 239 241 242 242 244 244 240 237 238 240 243 245 247 248 247 246 246 246 247 249 252 254
Height
5622 5628 5636 5642 5648 5653 5659 5668 5674 5680 5686 5692 5699 5703 5706 5710 5716 5721 5727 5733 5739 5744 5749 5754 5759 5763 5766 5770 5773 5776 5780 5783 5787 5791 5795 5798 5801 5803 5805 5808 5811 5813 5816 5820 5822 5825 5828 5831 5834 5837 5838 5840 5842 5844 5846 5848 5850 5852 5853 5855 5858 5860 5863 5864 5865 5866 5868 5870 5871 5872 5873 5875 5875 5876 5876 5877 5877 5877 5877 5877 5878 5878 5879 5879 5879 5880 5881 5881
5616 5623 5631 5638 5643 5648 5655 5662 5668 5674 5680 5686 5693 5697 5701 5706 5711 5717 5723 5728 5734 5740 5745 5750 5755 5759 5762 5766 5770 5773 5777 5780 5783 5787 5792 5796 5798 5801 5803 5805 5808 5811 5814 5817 5820 5822 5825 5828 5832 5835 5837 5838 5839 5842 5844 5846 5848 5850 5852 5855 5857 5860 5862 5863 5863 5865 5867 5868 5869 5871 5872 5873 5875 5875 5876 5877 5877 5877 5877 5878 5879 5879 5880 5880 5880 5880 5881 5882
5609 5617 5625 5632 5638 5644 5650 5656 5662 5669 5675 5680 5686 5692 5697 5702 5707 5712 5718 5724 5730 5735 5741 5746 5751 5755 5759 5763 5767 5770 5772 5775 5780 5785 5789 5793 5796 5798 5800 5803 5806 5809 5812 5815 5818 5820 5822 5825 5829 5832 5834 5836 5837 5839 5842 5845 5846 5849 5851 5854 5857 5858 5860 5861 5862 5864 5865 5867 5869 5870 5871 5872 5874 5875 5875 5876 5877 5877 5877 5878 5879 5880 5880 5880 5881 5881 5882 5883
5602 5611 5619 5626 5632 5639 5646 5651 5657 5664 5670 5676 5682 5688 5693 5697 5703 5708 5713 5719 5725 5731 5737 5742 5747 5751 5755 5759 5762 5766 5768 5771 5777 5783 5787 5790 5793 5795 5798 5801 5804 5807 5810 5813 5816 5817 5819 5822 5825 5828 5831 5834 5835 5837 5841 5843 5844 5847 5850 5853 5855 5856 5858 5860 5861 5862 5864 5866 5867 5868 5870 5871 5873 5874 5874 5875 5876 5876 5876 5877 5878 5879 5880 5881 5881 5881 5882 5883
5596 5605 5614 5621 5626 5633 5640 5645 5651 5658 5665 5671 5676 5683 5688 5693 5698 5703 5709 5715 5720 5726 5732 5737 5743 5747 5751 5755 5757 5762 5764 5768 5776 5780 5782 5786 5790 5792 5795 5798 5802 5805 5807 5810 5813 5815 5817 5819 5822 5825 5828 5831 5833 5836 5838 5840 5842 5844 5849 5851 5852 5854 5856 5858 5860 5861 5862 5864 5865 5867 5869 5870 5871 5872 5873 5873 5874 5875 5876 5877 5878 5879 5880 5881 5881 5881 5882 5883
5590 5598 5607 5615 5620 5627 5634 5641 5646 5652 5660 5667 5672 5678 5683 5688 5694 5699 5705 5710 5716 5722 5727 5732 5738 5743 5747 5750 5754 5758 5760 5766 5774 5776 5778 5783 5787 5789 5792 5795 5799 5802 5804 5807 5810 5812 5814 5816 5819 5822 5825 5828 5831 5833 5836 5837 5839 5843 5847 5848 5849 5852 5854 5856 5858 5859 5860 5862 5864 5865 5866 5868 5870 5871 5871 5872 5873 5875 5876 5877 5878 5879 5880 5881 5881 5881 5882 5882
5584 5591 5600 5609 5616 5622 5629 5636 5642 5648 5656 5663 5669 5674 5680 5685 5690 5695 5700 5705 5712 5717 5723 5728 5733 5738 5742 5746 5750 5753 5757 5764 5770 5772 5776 5780 5784 5787 5789 5791 5795 5798 5800 5803 5806 5809 5812 5814 5816 5820 5823 5826 5828 5831 5833 5835 5837 5841 5844 5845 5847 5850 5852 5854 5856 5858 5859 5861 5862 5863 5865 5867 5868 5869 5870 5871 5872 5874 5875 5877 5878 5879 5879 5880 5881 5881 5882 5882
5577 5585 5594 5602 5610 5618 5625 5631 5637 5644 5651 5658 5664 5670 5676 5680 5685 5691 5696 5701 5707 5712 5718 5724 5728 5734 5738 5743 5746 5749 5753 5759 5765 5769 5773 5777 5780 5784 5785 5788 5791 5794 5797 5800 5803 5806 5809 5812 5814 5817 5820 5823 5825 5828 5830 5832 5836 5839 5842 5843 5845 5848 5850 5852 5854 5856 5857 5859 5860 5862 5864 5865 5866 5867 5868 5869 5871 5873 5875 5876 5877 5878 5879 5880 5881 5881 5881 5882
5570 5578 5588 5596 5604 5614 5620 5626 5633 5639 5647 5654 5660 5666 5672 5676 5681 5686 5692 5697 5703 5708 5714 5719 5724 5729 5734 5740 5743 5747 5752 5757 5762 5766 5769 5773 5777 5780 5782 5785 5788 5791 5794 5797 5800 5803 5806 5810 5812 5814 5818 5821 5823 5825 5826 5830 5833 5836 5838 5839 5842 5845 5847 5849 5851 5853 5854 5856 5859 5862 5863 5864 5865 5866 5867 5869 5870 5872 5873 5875 5876 5878 5878 5879 5880 5881 5881 5882
5564 5572 5582 5590 5598 5607 5615 5622 5628 5635 5643 5650 5656 5663 5668 5674 5679 5682 5687 5693 5699 5704 5709 5714 5719 5724 5730 5735 5738 5744 5751 5754 5759 5764 5766 5770 5773 5777 5779 5782 5786 5789 5792 5795 5797 5800 5803 5807 5809 5811 5815 5817 5818 5821 5823 5827 5830 5833 5835 5836 5839 5842 5844 5846 5849 5850 5852 5854 5857 5859 5861 5862 5863 5865 5866 5868 5869 5870 5872 5874 5875 5877 5878 5879 5880 5880 5881 5882
5559 5567 5575 5585 5592 5601 5610 5618 5625 5632 5640 5646 5653 5659 5664 5671 5677 5680 5683 5689 5694 5700 5705 5710 5715 5720 5726 5731 5736 5743 5748 5750 5755 5760 5763 5766 5770 5774 5776 5778 5782 5785 5788 5791 5794 5796 5799 5802 5805 5808 5810 5812 5815 5818 5819 5823 5828 5830 5832 5833 5836 5839 5842 5844 5846 5848 5850 5852 5855 5857 5859 5860 5861 5864 5865 5865 5867 5868 5870 5872 5874 5875 5877 5878 5879 5880 5880 5881
5555 5563 5570 5580 5589 5598 5606 5613 5621 5628 5636 5643 5650 5655 5660 5668 5673 5676 5679 5685 5691 5696 5701 5706 5711 5716 5722 5727 5734 5741 5744 5746 5751 5755 5758 5763 5766 5770 5772 5773 5776 5780 5783 5787 5789 5792 5795 5799 5802 5803 5806 5810 5813 5814 5815 5820 5825 5828 5829 5831 5834 5837 5840 5842 5844 5846 5848 5850 5852 5854 5855 5858 5861 5863 5863 5864 5865 5867 5869 5871 5873 5874 5875 5877 5878 5879 5880 5881
5551 5559 5567 5576 5586 5595 5602 5609 5617 5624 5632 5640 5646 5651 5657 5663 5669 5674 5678 5683 5688 5692 5697 5702 5708 5713 5717 5723 5730 5735 5738 5741 5747 5752 5755 5759 5762 5765 5768 5770 5773 5776 5779 5782 5785 5788 5791 5795 5798 5799 5802 5807 5810 5811 5812 5817 5822 5825 5826 5828 5831 5835 5838 5840 5841 5843 5845 5847 5849 5851 5854 5858 5862 5861 5861 5863 5865 5867 5869 5870 5872 5873 5874 5875 5877 5878 5878 5880
5547 5556 5564 5572 5583 5591 5598 5605 5613 5621 5629 5636 5642 5647 5653 5661 5667 5672 5677 5681 5685 5689 5694 5698 5704 5708 5712 5719 5726 5730 5733 5737 5743 5748 5751 5755 5759 5761 5764 5766 5770 5773 5776 5780 5783 5784 5788 5792 5794 5796 5799 5803 5806 5808 5810 5814 5819 5822 5823 5825 5828 5831 5835 5837 5839 5841 5843 5845 5847 5849 5853 5858 5858 5857 5859 5862 5864 5865 5867 5869 5870 5872 5873 5874 5875 5876 5878 5878
5542 5551 5559 5568 5579 5588 5594 5602 5610 5617 5625 5632 5638 5644 5651 5658 5663 5668 5672 5677 5681 5685 5689 5694 5698 5703 5708 5714 5720 5725 5729 5733 5740 5745 5747 5751 5755 5758 5761 5763 5766 5770 5774 5777 5780 5782 5785 5788 5791 5793 5796 5799 5802 5804 5806 5810 5815 5819 5820 5822 5825 5828 5833 5835 5836 5839 5841 5843 5845 5848 5853 5855 5854 5854 5858 5860 5862 5864 5865 5867 5869 5871 5872 5873 5874 5875 5876 5877
5537 5546 5554 5564 5575 5583 5590 5598 5606 5613 5621 5629 5635 5641 5647 5654 5659 5663 5667 5672 5677 5680 5684 5687 5691 5698 5704 5708 5715 5720 5724 5730 5737 5741 5744 5748 5751 5754 5757 5759 5763 5767 5770 5774 5777 5779 5782 5785 5787 5790 5792 5795 5798 5801 5803 5806 5812 5816 5817 5820 5822 5826 5830 5832 5833 5836 5838 5840 5842 5845 5851 5852 5851 5854 5857 5859 5861 5863 5864 5866 5868 5869 5871 5872 5873 5874 5875 5876
5532 5540 5548 5558 5569 5579 5586 5594 5603 5610 5617 5625 5632 5638 5644 5650 5655 5659 5664 5668 5670 5674 5680 5684 5690 5697 5697 5701 5710 5716 5722 5728 5734 5738 5741 5744 5747 5750 5753 5757 5760 5763 5767 5770 5773 5776 5778 5781 5784 5787 5789 5792 5795 5798 5800 5804 5809 5812 5814 5817 5820 5823 5827 5829 5830 5833 5835 5837 5839 5843 5848 5849 5850 5853 5856 5857 5859 5861 5863 5865 5866 5867 5869 5870 5872 5873 5875 5876
5527 5535 5542 5552 5564 5573 5581 5589 5598 5606 5614 5622 5628 5634 5640 5646 5651 5655 5657 5659 5662 5669 5674 5677 5682 5685 5686 5695 5708 5715 5721 5727 5731 5735 5737 5740 5743 5747 5750 5754 5757 5760 5763 5766 5768 5772 5774 5777 5781 5782 5785 5789 5793 5796 5798 5803 5808 5809 5810 5813 5817 5821 5824 5826 5828 5831 5833 5836 5838 5841 5845 5847 5849 5851 5853 5855 5857 5859 5861 5862 5863 5865 5867 5869 5870 5872 5874 5874
5523 5530 5537 5547 5558 5566 5575 5585 5594 5602 5609 5617 5624 5631 5638 5642 5647 5650 5649 5650 5655 5658 5660 5665 5672 5679 5688 5700 5710 5715 5720 5724 5727 5730 5733 5737 5741 5744 5748 5751 5754 5756 5759 5762 5765 5767 5770 5774 5777 5779 5784 5791 5795 5796 5798 5803 5805 5804 5806 5810 5814 5818 5822 5824 5826 5829 5832 5834 5836 5840 5844 5847 5848 5850 5851 5853 5855 5856 5858 5859 5861 5863 5865 5867 5869 5871 5872 5873
5517 5525 5533 5542 5552 5560 5570 5581 5590 5598 5604 5611 5618 5623 5626 5627 5631 5636 5641 5647 5652 5656 5662 5669 5676 5685 5695 5703 5708 5712 5715 5718 5722 5726 5730 5734 5737 5741 5744 5748 5750 5752 5755 5758 5761 5765 5767 5770 5774 5780 5788 5793 5794 5794 5796 5800 5800 5801 5803 5807 5811 5815 5819 5822 5823 5826 5829 5831 5834 5838 5842 5843 5844 5846 5848 5849 5851 5853 5855 5858 5860 5862 5863 5865 5867 5869 5870 5871
5512 5520 5528 5537 5547 5556 5566 5576 5586 5593 5600 5607 5611 5613 5614 5617 5622 5628 5635 5642 5650 5658 5665 5670 5676 5685 5692 5698 5704 5708 5710 5713 5718 5721 5725 5729 5733 5737 5741 5744 5747 5749 5752 5754 5758 5762 5763 5768 5776 5783 5787 5789 5789 5789 5792 5795 5796 5798 5801 5804 5808 5812 5816 5819 5821 5824 5826 5828 5832 5835 5837 5839 5840 5843 5844 5846 5848 5851 5853 5856 5858 5859 5860 5862 5864 5866 5868 5868
5507 5516 5525 5533 5542 5553 5563 5571 5580 5589 5595 5600 5604 5608 5614 5621 5629 5636 5640 5645 5652 5658 5663 5668 5675 5682 5688 5693 5697 5700 5703 5708 5713 5716 5719 5724 5729 5733 5736 5741 5743 5746 5749 5752 5755 5758 5761 5768 5777 5780 5781 5782 5783 5784 5787 5790 5792 5794 5797 5800 5805 5809 5813 5815 5818 5821 5823 5825 5828 5831 5833 5836 5837 5839 5840 5843 5846 5848 5850 5852 5854 5856 5857 5859 5861 5864 5865 5866
5502 5512 5521 5529 5539 5550 5558 5565 5575 5584 5588 5592 5599 5606 5614 5621 5628 5635 5642 5647 5649 5652 5657 5664 5671 5678 5684 5688 5690 5693 5698 5704 5709 5713 5718 5723 5726 5729 5733 5737 5740 5743 5745 5749 5753 5757 5762 5769 5772 5772 5773 5776 5778 5780 5782 5785 5787 5790 5793 5797 5802 5806 5809 5812 5815 5817 5819 5821 5825 5827 5830 5832 5833 5834 5836 5840 5843 5845 5846 5849 5851 5853 5856 5858 5859 5861 5863 5865
5499 5508 5517 5526 5536 5546 5554 5561 5568 5575 5582 5590 5599 5606 5613 5620 5626 5631 5637 5641 5643 5646 5651 5656 5664 5671 5677 5681 5686 5691 5696 5702 5706 5710 5715 5721 5724 5728 5731 5734 5737 5740 5742 5746 5751 5755 5761 5765 5765 5766 5769 5772 5774 5776 5778 5780 5784 5787 5790 5794 5800 5804 5806 5809 5811 5813 5816 5818 5821 5824 5826 5828 5830 5831 5834 5838 5841 5842 5844 5846 5849 5852 5855 5856 5857 5859 5862 5863
5495 5505 5514 5523 5532 5541 5550 5554 5559 5570 5581 5589 5596 5603 5610 5619 5626 5629 5633 5635 5638 5643 5648 5652 5657 5662 5668 5674 5679 5684 5691 5697 5701 5705 5711 5717 5721 5724 5728 5732 5735 5738 5740 5744 5747 5751 5754 5756 5759 5761 5764 5767 5770 5773 5776 5779 5782 5784 5787 5792 5797 5800 5803 5805 5807 5809 5811 5813 5817 5820 5820 5823 5827 5828 5831 5836 5838 5840 5841 5843 5846 5849 5851 5852 5854 5857 5859 5860
5492 5502 5510 5519 5528 5536 5540 5544 5555 5568 5577 5584 5593 5602 5609 5616 5622 5625 5630 5632 5632 5636 5642 5648 5653 5658 5665 5668 5671 5678 5685 5688 5693 5700 5706 5711 5715 5719 5724 5729 5733 5736 5738 5741 5742 5745 5748 5752 5755 5757 5761 5765 5768 5771 5775 5777 5779 5781 5786 5791 5793 5796 5799 5801 5804 5805 5807 5809 5814 5816 5816 5820 5824 5825 5829 5832 5834 5837 5838 5839 5843 5846 5848 5850 5853 5855 5856 5858
5489 5498 5507 5515 5522 5525 5530 5542 5554 5562 5571 5582 5592 5601 5606 5612 5617 5620 5624 5625 5624 5628 5636 5642 5649 5655 5661 5663 5668 5674 5678 5683 5690 5695 5699 5705 5710 5714 5720 5725 5729 5733 5735 5737 5738 5743 5747 5749 5752 5755 5759 5762 5765 5771 5775 5776 5777 5781 5785 5787 5789 5793 5796 5797 5800 5801 5803 5806 5809 5812 5813 5815 5819 5822 5825 5827 5830 5833 5834 5836 5841 5843 5845 5849 5851 5852 5854 5855
5485 5494 5503 5511 5516 5523 5535 5548 5554 5561 5574 5584 5592 5599 5602 5607 5614 5617 5615 5613 5615 5623 5631 5639 5647 5653 5655 5659 5665 5670 5676 5684 5688 5690 5694 5699 5704 5709 5714 5719 5723 5727 5730 5733 5736 5741 5745 5746 5749 5753 5756 5760 5766 5771 5772 5772 5775 5781 5782 5782 5785 5789 5791 5794 5797 5798 5800 5801 5803 5807 5809 5809 5813 5819 5821 5822 5825 5829 5831 5834 5838 5841 5844 5847 5849 5850 5851 5853
5482 5490 5499 5507 5515 5526 5539 5548 5557 5567 5575 5582 5589 5595 5598 5605 5610 5610 5607 5605 5610 5620 5628 5635 5643 5647 5650 5654 5660 5666 5674 5681 5684 5688 5692 5694 5698 5704 5709 5714 5717 5720 5724 5727 5730 5735 5739 5741 5745 5749 5753 5760 5765 5766 5766 5767 5773 5777 5776 5776 5781 5783 5786 5789 5792 5794 5796 5795 5798 5804 5806 5804 5808 5816 5818 5818 5822 5826 5829 5833 5836 5839 5841 5843 5845 5846 5848 5850
5478 5486 5496 5505 5511 5520 5530 5541 5556 5566 5569 5576 5584 5590 5596 5602 5601 5598 5595 5597 5605 5615 5623 5630 5637 5642 5646 5652 5657 5662 5669 5674 5680 5685 5688 5691 5696 5699 5702 5707 5711 5714 5719 5722 5724 5729 5733 5736 5740 5746 5752 5758 5759 5760 5761 5764 5768 5770 5769 5771 5775 5778 5782 5785 5787 5790 5790 5789 5795 5802 5803 5802 5803 5810 5815 5815 5819 5824 5827 5830 5833 5835 5837 5839 5841 5843 5844 5846
5475 5484 5492 5499 5506 5516 5523 5532 5545 5555 5562 5572 5580 5585 5591 5594 5591 5588 5588 5595 5604 5611 5617 5625 5632 5638 5644 5650 5655 5661 5667 5672 5676 5678 5682 5688 5692 5694 5698 5702 5706 5710 5715 5719 5723 5728 5731 5734 5738 5744 5749 5752 5754 5755 5757 5759 5762 5763 5763 5765 5770 5772 5776 5779 5782 5785 5783 5784 5792 5797 5798 5797 5796 5804 5812 5813 5816 5821 5822 5825 5828 5830 5832 5834 5837 5839 5840 5842
5474 5483 5490 5497 5507 5515 5522 5532 5542 5550 5559 5568 5575 5580 5583 5583 5581 5581 5585 5594 5601 5606 5615 5623 5630 5637 5644 5650 5655 5660 5665 5669 5672 5676 5682 5687 5689 5693 5699 5703 5707 5711 5714 5719 5722 5725 5729 5732 5735 5739 5743 5746 5749 5751 5752 5754 5756 5757 5758 5760 5764 5767 5770 5772 5775 5777 5779 5782 5788 5791 5793 5791 5789 5799 5809 5810 5813 5816 5818 5822 5825 5826 5829 5831 5834 5836 5837 5839
5473 5482 5489 5497 5505 5512 5522 5535 5545 5550 5556 5565 5570 5574 5576 5574 5572 5576 5584 5593 5600 5609 5620 5627 5633 5638 5641 5643 5648 5656 5663 5668 5671 5676 5681 5683 5687 5691 5695 5700 5705 5709 5715 5719 5720 5721 5726 5729 5731 5735 5739 5742 5745 5747 5750 5752 5753 5755 5756 5757 5758 5761 5763 5766 5770 5773 5776 5779 5782 5786 5788 5786 5786 5795 5804 5808 5811 5813 5815 5819 5821 5823 5826 5828 5830 5833 5834 5837
5472 5480 5487 5495 5503 5511 5522 5530 5539 5547 5554 5560 5564 5567 5568 5566 5568 5577 5586 5594 5602 5611 5618 5623 5629 5633 5635 5639 5644 5652 5658 5662 5668 5674 5676 5677 5681 5686 5691 5697 5703 5707 5712 5715 5716 5720 5724 5727 5730 5734 5737 5739 5742 5745 5749 5751 5751 5753 5754 5754 5754 5756 5760 5764 5767 5770 5773 5774 5776 5780 5783 5782 5783 5790 5799 5804 5808 5810 5812 5815 5818 5820 5823 5825 5827 5829 5831 5834
5471 5479 5486 5492 5497 5506 5517 5525 5534 5543 5548 5554 5558 5559 5558 5560 5568 5578 5586 5593 5600 5605 5611 5619 5624 5626 5630 5636 5642 5646 5650 5655 5663 5668 5672 5676 5682 5686 5692 5697 5701 5704 5708 5711 5714 5718 5721 5725 5729 5731 5733 5736 5738 5741 5744 5745 5745 5747 5748 5747 5749 5755 5760 5763 5766 5768 5771 5772 5773 5777 5780 5782 5782 5787 5796 5802 5805 5807 5810 5812 5815 5817 5820 5822 5823 5825 5827 5830
5467 5473 5480 5486 5492 5502 5512 5520 5529 5538 5544 5549 5552 5553 5557 5565 5573 5581 5588 5594 5599 5602 5608 5613 5617 5620 5626 5631 5637 5642 5648 5655 5660 5663 5668 5676 5682 5686 5691 5694 5697 5701 5706 5710 5714 5716 5719 5723 5725 5726 5728 5730 5733 5736 5738 5739 5740 5742 5741 5742 5748 5754 5756 5758 5762 5765 5768 5768 5770 5774 5778 5781 5782 5784 5794 5800 5802 5804 5807 5809 5811 5813 5815 5818 5819 5822 5824 5825
5458 5465 5473 5481 5491 5501 5510 5518 5527 5535 5542 5546 5548 5552 5561 5569 5575 5582 5588 5592 5596 5601 5606 5607 5610 5617 5623 5628 5634 5639 5646 5652 5656 5660 5667 5672 5676 5682 5688 5691 5695 5700 5704 5708 5710 5712 5715 5717 5719 5721 5723 5725 5727 5730 5732 5734 5737 5737 5737 5742 5748 5748 5748 5753 5756 5759 5761 5763 5766 5770 5773 5777 5778 5779 5787 5795 5797 5799 5803 5805 5807 5809 5811 5814 5816 5818 5820 5821
5456 5465 5473 5481 5490 5499 5508 5517 5526 5533 5539 5542 5546 5554 5560 5565 5570 5577 5583 5587 5592 5598 5602 5606 5612 5617 5621 5627 5633 5638 5643 5647 5651 5658 5665 5669 5675 5682 5686 5690 5693 5697 5701 5704 5705 5708 5710 5712 5714 5716 5718 5721 5722 5724 5725 5729 5731 5733 5736 5741 5742 5740 5743 5748 5749 5752 5756 5758 5760 5764 5767 5770 5773 5775 5781 5789 5793 5795 5798 5801 5804 5806 5808 5810 5812 5813 5814 5816
5457 5464 5471 5480 5490 5499 5506 5514 5523 5530 5534 5535 5540 5548 5554 5560 5568 5575 5581 5586 5591 5596 5600 5606 5612 5616 5620 5626 5631 5635 5639 5644 5649 5656 5661 5667 5675 5682 5686 5688 5691 5694 5698 5700 5701 5703 5705 5707 5709 5711 5713 5715 5717 5718 5721 5725 5728 5730 5732 5734 5735 5737 5741 5743 5745 5749 5752 5754 5756 5759 5761 5765 5770 5773 5777 5784 5790 5792 5794 5797 5800 5802 5804 5805 5806 5807 5809 5811
5455 5462 5469 5478 5487 5495 5504 5513 5519 5523 5526 5531 5539 5547 5553 5560 5568 5573 5579 5585 5590 5595 5599 5604 5609 5614 5620 5625 5629 5632 5636 5642 5648 5654 5660 5667 5673 5678 5682 5684 5687 5692 5695 5696 5697 5699 5701 5702 5704 5706 5708 5710 5712 5715 5719 5722 5724 5726 5728 5729 5731 5734 5737 5739 5742 5745 5748 5751 5754 5755 5757 5761 5768 5772 5774 5780 5787 5790 5791 5794 5796 5797 5799 5800 5802 5803 5805 5807
5454 5460 5467 5476 5484 5492 5499 5506 5510 5516 5524 5532 5539 5546 5551 5557 5563 5568 5575 5581 5586 5591 5597 5602 5606 5611 5617 5621 5625 5630 5635 5640 5646 5652 5658 5664 5669 5673 5678 5681 5685 5688 5689 5691 5693 5695 5697 5698 5700 5702 5704 5706 5709 5711 5714 5716 5719 5722 5724 5726 5728 5730 5732 5734 5736 5740 5744 5747 5748 5749 5752 5757 5764 5768 5772 5777 5782 5785 5787 5789 5791 5793 5794 5796 5798 5800 5801 5802
5452 5458 5466 5473 5480 5487 5493 5498 5504 5514 5523 5529 5536 5543 5548 5554 5560 5566 5572 5577 5582 5587 5592 5598 5603 5608 5613 5619 5624 5629 5633 5638 5644 5650 5656 5662 5668 5673 5676 5679 5682 5684 5686 5689 5691 5692 5694 5695 5696 5698 5701 5703 5704 5706 5709 5712 5714 5717 5719 5722 5724 5725 5727 5729 5731 5737 5740 5741 5744 5746 5747 5752 5759 5764 5769 5773 5777 5780 5783 5785 5787 5788 5789 5791 5793 5794 5796 5798
5450 5459 5469 5476 5480 5485 5490 5495 5503 5511 5519 5526 5535 5541 5545 5551 5557 5562 5568 5574 5579 5584 5589 5595 5600 5605 5611 5618 5624 5628 5632 5637 5642 5648 5654 5659 5664 5668 5671 5674 5677 5679 5681 5683 5685 5688 5690 5691 5691 5694 5696 5698 5699 5703 5706 5708 5710 5712 5716 5719 5720 5720 5724 5726 5728 5733 5734 5736 5742 5744 5744 5750 5757 5761 5766 5770 5773 5775 5778 5780 5782 5783 5784 5786 5787 5789 5791 5792
5451 5460 5468 5474 5479 5486 5489 5492 5498 5506 5515 5524 5531 5535 5540 5547 5554 5559 5566 5573 5578 5583 5588 5593 5599 5605 5611 5616 5623 5628 5632 5636 5641 5646 5651 5655 5660 5664 5666 5669 5671 5673 5677 5681 5683 5685 5686 5686 5688 5690 5691 5692 5695 5697 5701 5704 5707 5709 5712 5714 5715 5717 5720 5721 5724 5727 5727 5732 5738 5739 5741 5748 5754 5757 5761 5764 5767 5770 5772 5774 5776 5778 5779 5780 5781 5783 5785 5786
5448 5456 5464 5469 5475 5481 5487 5494 5502 5509 5515 5522 5526 5532 5538 5545 5552 5561 5567 5571 5576 5581 5586 5591 5597 5603 5608 5614 5620 5625 5630 5635 5639 5643 5647 5651 5655 5659 5662 5665 5668 5672 5676 5678 5679 5680 5681 5682 5684 5686 5687 5689 5693 5696 5699 5701 5702 5703 5705 5707 5710 5713 5714 5717 5720 5721 5722 5729 5733 5734 5739 5745 5749 5752 5754 5757 5762 5765 5767 5768 5770 5771 5773 5774 5776 5778 5779 5781
5443 5448 5455 5462 5469 5476 5484 5493 5503 5509 5515 5519 5523 5529 5535 5543 5551 5558 5562 5566 5571 5577 5583 5588 5593 5598 5603 5609 5614 5620 5626 5631 5636 5641 5645 5649 5653 5656 5660 5663 5666 5669 5671 5672 5673 5675 5676 5678 5681 5684 5686 5690 5693 5696 5699 5700 5699 5700 5702 5704 5705 5707 5709 5712 5713 5714 5720 5726 5726 5730 5737 5741 5743 5748 5750 5753 5757 5760 5762 5763 5764 5766 5767 5769 5771 5772 5774 5776
5443 5445 5448 5454 5462 5470 5479 5486 5495 5504 5513 5518 5522 5528 5535 5542 5548 5552 5556 5562 5569 5575 5580 5585 5589 5593 5598 5603 5609 5616 5622 5627 5631 5637 5642 5646 5650 5654 5657 5660 5662 5664 5666 5667 5669 5671 5673 5675 5680 5683 5684 5686 5688 5690 5693 5695 5696 5699 5700 5701 5703 5704 5706 5706 5707 5712 5719 5719 5719 5728 5734 5735 5740 5745 5746 5749 5753 5754 5756 5758 5759 5760 5761 5763 5765 5767 5769 5770
5440 5447 5454 5459 5462 5466 5474 5483 5493 5502 5510 5516 5521 5528 5534 5538 5543 5549 5555 5560 5566 5571 5576 5581 5586 5591 5597 5602 5607 5612 5617 5622 5627 5632 5637 5641 5645 5649 5652 5654 5656 5660 5662 5663 5666 5668 5671 5674 5678 5680 5680 5682 5683 5685 5686 5689 5691 5693 5694 5696 5699 5701 5702 5703 5706 5712 5715 5714 5718 5728 5731 5732 5739 5742 5743 5746 5748 5749 5751 5752 5753 5754 5755 5757 5759 5761 5763 5764
5440 5447 5453 5461 5468 5476 5485 5493 5498 5503 5508 5513 5519 5525 5531 5537 5542 5549 5554 5558 5562 5567 5573 5578 5584 5590 5596 5601 5605 5609 5613 5618 5623 5627 5633 5638 5642 5645 5647 5649 5652 5656 5659 5661 5663 5666 5669 5672 5674 5676 5676 5678 5679 5680 5682 5685 5686 5687 5688 5691 5693 5695 5698 5701 5705 5709 5711 5711 5717 5724 5724 5727 5733 5736 5738 5741 5741 5743 5745 5745 5746 5748 5750 5752 5754 5755 5757 5758
5442 5448 5452 5459 5470 5481 5488 5493 5498 5503 5508 5514 5520 5525 5531 5537 5541 5546 5550 5555 5560 5565 5571 5577 5583 5589 5593 5597 5601 5606 5613 5619 5624 5628 5632 5635 5638 5642 5644 5647 5651 5653 5655 5657 5659 5662 5665 5668 5670 5671 5672 5672 5675 5677 5678 5680 5681 5682 5683 5686 5688 5690 5693 5696 5699 5703 5704 5706 5711 5714 5714 5719 5727 5730 5733 5735 5735 5737 5739 5739 5742 5745 5746 5747 5748 5749 5751 5753
5445 5452 5459 5465 5470 5475 5480 5486 5493 5499 5503 5509 5516 5522 5528 5533 5539 5543 5548 5553 5559 5565 5570 5575 5580 5586 5590 5594 5599 5606 5614 5619 5623 5628 5631 5634 5637 5640 5642 5644 5647 5648 5650 5653 5655 5657 5660 5662 5664 5666 5666 5668 5671 5672 5673 5675 5676 5675 5677 5682 5685 5688 5690 5692 5694 5697 5698 5701 5706 5706 5708 5716 5723 5725 5727 5729 5731 5732 5734 5736 5739 5740 5740 5741 5742 5743 5746 5749
5445 5452 5458 5465 5469 5474 5479 5485 5489 5494 5500 5508 5514 5520 5526 5531 5536 5541 5545 5550 5557 5563 5568 5573 5577 5581 5585 5591 5598 5605 5611 5614 5618 5622 5625 5628 5632 5635 5636 5639 5642 5644 5646 5648 5650 5652 5655 5657 5659 5661 5662 5664 5667 5668 5670 5671 5669 5669 5676 5682 5684 5684 5686 5688 5690 5693 5696 5698 5700 5701 5706 5714 5719 5720 5723 5727 5728 5729 5731 5732 5732 5731 5732 5734 5736 5738 5742 5745